START_TIME,STEP,MOV.,A46,t_acc.,A13,t_acc.,M47,t_acc.,A17,t_acc.,A28,t_acc.,M38,t_acc.
1979-07-11 09:00:25.870 ,1,0,,0,1504.,4.8,236.,4.8,,0,0.,4.8,312.,4.8
1979-07-11 09:00:30.670 ,1,0,,0,1504.,4.8,252.,4.8,,0,0.,4.8,328.,4.8
1979-07-11 09:00:35.470 ,1,0,,0,1216.,4.8,184.,4.8,,0,0.,4.8,288.,4.8
1979-07-11 09:00:40.270 ,1,0,,0,0.,4.8,0.,4.8,,0,0.,4.8,344.,4.8
1979-07-11 09:00:45.070 ,1,0,,0,0.,4.8,0.,4.8,,0,0.,4.8,288.,4.8
1979-07-11 09:00:49.870 ,1,0,,0,0.,4.8,0.,4.8,,0,0.,4.8,320.,4.8
1979-07-11 09:00:54.670 ,1,0,,0,0.,4.8,0.,4.8,,0,0.,4.8,328.,4.8
1979-07-11 09:00:59.470 ,1,0,,0,280.,4.8,41.,4.8,,0,0.,4.8,312.,4.8
1979-07-11 09:01:04.270 ,1,0,,0,1504.,4.8,224.,4.8,,0,0.,4.8,336.,4.8
1979-07-11 09:01:09.070 ,1,0,,0,1472.,4.8,232.,4.8,,0,0.,4.8,304.,4.8
1979-07-11 09:01:13.870 ,1,0,,0,1472.,4.8,264.,4.8,,0,0.,4.8,320.,4.8
1979-07-11 09:01:18.670 ,1,0,,0,1472.,4.8,232.,4.8,,0,0.,4.8,320.,4.8
1979-07-11 09:01:23.470 ,1,0,,0,1184.,4.8,204.,4.8,,0,0.,4.8,344.,4.8
1979-07-11 09:01:28.270 ,1,0,,0,0.,4.8,0.,4.8,,0,0.,4.8,328.,4.8
1979-07-11 09:01:33.070 ,1,0,,0,0.,4.8,0.,4.8,,0,0.,4.8,312.,4.8
1979-07-11 09:01:37.870 ,2,0,,0,0.,4.8,0.,4.8,,0,0.,4.8,328.,4.8
1979-07-11 09:01:42.670 ,2,0,,0,0.,4.8,0.,4.8,,0,0.,4.8,312.,4.8
1979-07-11 09:01:47.470 ,2,0,,0,296.,4.8,41.,4.8,,0,0.,4.8,352.,4.8
1979-07-11 09:01:52.270 ,2,0,,0,1632.,4.8,248.,4.8,,0,0.,4.8,336.,4.8
1979-07-11 09:01:57.070 ,2,0,,0,1632.,4.8,256.,4.8,,0,0.,4.8,360.,4.8
1979-07-11 09:02:01.870 ,2,0,,0,1664.,4.8,256.,4.8,,0,0.,4.8,352.,4.8
1979-07-11 09:02:06.670 ,2,0,,0,1696.,4.8,256.,4.8,,0,0.,4.8,392.,4.8
1979-07-11 09:02:11.470 ,2,0,,0,1344.,4.8,204.,4.8,,0,0.,4.8,376.,4.8
1979-07-11 09:02:16.270 ,2,0,,0,0.,4.8,0.,4.8,,0,0.,4.8,376.,4.8
1979-07-11 09:02:21.070 ,2,0,,0,0.,4.8,0.,4.8,,0,0.,4.8,368.,4.8
1979-07-11 09:02:25.870 ,2,0,,0,0.,4.8,0.,4.8,,0,0.,4.8,368.,4.8
1979-07-11 09:02:30.670 ,2,0,,0,0.,4.8,0.,4.8,,0,0.,4.8,368.,4.8
1979-07-11 09:02:35.470 ,2,0,,0,248.,4.8,47.,4.8,,0,0.,4.8,360.,4.8
1979-07-11 09:02:40.270 ,2,0,,0,1664.,4.8,280.,4.8,,0,0.,4.8,368.,4.8
1979-07-11 09:02:45.070 ,2,0,,0,1632.,4.8,256.,4.8,,0,0.,4.8,360.,4.8
1979-07-11 09:02:49.870 ,2,0,,0,1664.,4.8,236.,4.8,,0,0.,4.8,352.,4.8
1979-07-11 09:02:54.670 ,2,0,,0,1632.,4.8,256.,4.8,,0,0.,4.8,352.,4.8
1979-07-11 09:02:59.470 ,2,0,,0,1344.,4.8,212.,4.8,,0,0.,4.8,336.,4.8
1979-07-11 09:03:04.270 ,2,0,,0,0.,4.8,0.,4.8,,0,0.,4.8,360.,4.8
1979-07-11 09:03:09.070 ,2,0,,0,0.,4.8,0.,4.8,,0,0.,4.8,360.,4.8
1979-07-11 09:03:13.870 ,2,0,,0,0.,4.8,0.,4.8,,0,0.,4.8,352.,4.8
1979-07-11 09:03:18.670 ,2,0,,0,0.,4.8,0.,4.8,,0,0.,4.8,336.,4.8
1979-07-11 09:03:23.470 ,2,0,,0,264.,4.8,55.,4.8,,0,0.,4.8,368.,4.8
1979-07-11 09:03:28.270 ,2,0,,0,1568.,4.8,236.,4.8,,0,0.,4.8,360.,4.8
1979-07-11 09:03:33.070 ,2,0,,0,1536.,4.8,252.,4.8,,0,0.,4.8,352.,4.8
1979-07-11 09:03:37.870 ,2,0,,0,1536.,4.8,256.,4.8,,0,0.,4.8,320.,4.8
1979-07-11 09:03:42.670 ,2,0,,0,1504.,4.8,236.,4.8,,0,0.,4.8,352.,4.8
1979-07-11 09:03:47.470 ,2,0,,0,1312.,4.8,208.,4.8,,0,0.,4.8,336.,4.8
1979-07-11 09:03:52.270 ,2,0,,0,0.,4.8,0.,4.8,,0,0.,4.8,320.,4.8
1979-07-11 09:03:57.070 ,2,0,,0,0.,4.8,0.,4.8,,0,0.,4.8,344.,4.8
1979-07-11 09:04:01.870 ,3,0,,0,0.,4.8,0.,4.8,,0,0.,4.8,328.,4.8
1979-07-11 09:04:06.670 ,3,0,,0,0.,4.8,0.,4.8,,0,0.,4.8,384.,4.8
1979-07-11 09:04:11.470 ,3,0,,0,360.,4.8,60.,4.8,,0,0.,4.8,472.,4.8
1979-07-11 09:04:16.270 ,3,0,,0,2048.,4.8,424.,4.8,,0,0.,4.8,512.,4.8
1979-07-11 09:04:21.070 ,3,0,,0,2112.,4.8,408.,4.8,,0,0.,4.8,456.,4.8
1979-07-11 09:04:25.870 ,3,0,,0,2112.,4.8,416.,4.8,,0,0.,4.8,480.,4.8
1979-07-11 09:04:30.670 ,3,0,,0,1952.,4.8,368.,4.8,,0,0.,4.8,528.,4.8
1979-07-11 09:04:35.470 ,3,0,,0,1696.,4.8,344.,4.8,,0,0.,4.8,496.,4.8
1979-07-11 09:04:40.270 ,3,0,,0,0.,4.8,0.,4.8,,0,0.,4.8,464.,4.8
1979-07-11 09:04:45.070 ,3,0,,0,0.,4.8,0.,4.8,,0,0.,4.8,472.,4.8
1979-07-11 09:04:49.870 ,3,0,,0,0.,4.8,0.,4.8,,0,0.,4.8,488.,4.8
1979-07-11 09:04:54.670 ,3,0,,0,0.,4.8,0.,4.8,,0,0.,4.8,512.,4.8
1979-07-11 09:04:59.470 ,3,0,,0,336.,4.8,52.,4.8,,0,0.,4.8,512.,4.8
1979-07-11 09:05:04.270 ,3,0,,0,2240.,4.8,424.,4.8,,0,0.,4.8,512.,4.8
1979-07-11 09:05:09.070 ,3,0,,0,2304.,4.8,440.,4.8,,0,0.,4.8,544.,4.8
1979-07-11 09:05:13.870 ,3,0,,0,2240.,4.8,408.,4.8,,0,0.,4.8,528.,4.8
1979-07-11 09:05:18.670 ,3,0,,0,2304.,4.8,424.,4.8,,0,0.,4.8,544.,4.8
1979-07-11 09:05:23.470 ,3,0,,0,1952.,4.8,336.,4.8,,0,0.,4.8,576.,4.8
1979-07-11 09:05:28.270 ,3,0,,0,0.,4.8,0.,4.8,,0,0.,4.8,592.,4.8
1979-07-11 09:05:33.070 ,3,0,,0,0.,4.8,0.,4.8,,0,0.,4.8,560.,4.8
1979-07-11 09:05:37.870 ,3,0,,0,0.,4.8,0.,4.8,,0,0.,4.8,592.,4.8
1979-07-11 09:05:42.670 ,3,0,,0,0.,4.8,0.,4.8,,0,0.,4.8,560.,4.8
1979-07-11 09:05:47.470 ,3,0,,0,392.,4.8,72.,4.8,,0,0.,4.8,592.,4.8
1979-07-11 09:05:52.270 ,3,0,,0,2304.,4.8,424.,4.8,,0,0.,4.8,576.,4.8
1979-07-11 09:05:57.070 ,3,0,,0,2304.,4.8,408.,4.8,,0,0.,4.8,608.,4.8
1979-07-11 09:06:01.870 ,3,0,,0,2432.,4.8,432.,4.8,,0,0.,4.8,624.,4.8
1979-07-11 09:06:06.670 ,3,0,,0,2432.,4.8,456.,4.8,,0,0.,4.8,576.,4.8
1979-07-11 09:06:11.470 ,3,0,,0,2048.,4.8,360.,4.8,,0,0.,4.8,608.,4.8
1979-07-11 09:06:16.270 ,3,0,,0,0.,4.8,0.,4.8,,0,0.,4.8,608.,4.8
1979-07-11 09:06:21.070 ,3,0,,0,0.,4.8,0.,4.8,,0,0.,4.8,576.,4.8
1979-07-11 09:06:25.870 ,4,0,,0,0.,4.8,0.,4.8,,0,0.,4.8,560.,4.8
1979-07-11 09:06:30.670 ,4,0,,0,0.,4.8,0.,4.8,,0,0.,4.8,784.,4.8
1979-07-11 09:06:35.470 ,4,0,,0,656.,4.8,118.,4.8,,0,0.,4.8,1024.,4.8
1979-07-11 09:06:40.270 ,4,0,,0,4032.,4.8,672.,4.8,,0,0.,4.8,1088.,4.8
1979-07-11 09:06:45.070 ,4,0,,0,4032.,4.8,672.,4.8,,0,0.,4.8,1024.,4.8
1979-07-11 09:06:49.870 ,4,0,,0,3968.,4.8,704.,4.8,,0,0.,4.8,1024.,4.8
1979-07-11 09:06:54.670 ,4,0,,0,3968.,4.8,704.,4.8,,0,0.,4.8,1088.,4.8
1979-07-11 09:06:59.470 ,4,0,,0,3264.,4.8,576.,4.8,,0,0.,4.8,1088.,4.8
1979-07-11 09:07:04.270 ,4,0,,0,0.,4.8,0.,4.8,,0,0.,4.8,1056.,4.8
1979-07-11 09:07:09.070 ,4,0,,0,0.,4.8,0.,4.8,,0,0.,4.8,1088.,4.8
1979-07-11 09:07:13.870 ,4,0,,0,0.,4.8,0.,4.8,,0,0.,4.8,1056.,4.8
1979-07-11 09:07:18.670 ,4,0,,0,0.,4.8,0.,4.8,,0,0.,4.8,1024.,4.8
1979-07-11 09:07:23.470 ,4,0,,0,656.,4.8,124.,4.8,,0,0.,4.8,1056.,4.8
1979-07-11 09:07:28.270 ,4,0,,0,4032.,4.8,736.,4.8,,0,0.,4.8,1088.,4.8
1979-07-11 09:07:33.070 ,4,0,,0,4096.,4.8,736.,4.8,,0,0.,4.8,1152.,4.8
1979-07-11 09:07:37.870 ,4,0,,0,3968.,4.8,752.,4.8,,0,0.,4.8,1120.,4.8
1979-07-11 09:07:42.670 ,4,0,,0,4096.,4.8,736.,4.8,,0,0.,4.8,1088.,4.8
1979-07-11 09:07:47.470 ,4,0,,0,3392.,4.8,640.,4.8,,0,0.,4.8,1056.,4.8
1979-07-11 09:07:52.270 ,4,0,,0,0.,4.8,0.,4.8,,0,0.,4.8,1120.,4.8
1979-07-11 09:07:57.070 ,4,0,,0,0.,4.8,0.,4.8,,0,0.,4.8,1120.,4.8
1979-07-11 09:08:01.870 ,4,0,,0,0.,4.8,0.,4.8,,0,0.,4.8,1088.,4.8
1979-07-11 09:08:06.670 ,4,0,,0,0.,4.8,0.,4.8,,0,0.,4.8,1088.,4.8
1979-07-11 09:08:11.470 ,4,0,,0,688.,4.8,132.,4.8,,0,0.,4.8,1120.,4.8
1979-07-11 09:08:16.270 ,4,0,,0,4096.,4.8,768.,4.8,,0,0.,4.8,1056.,4.8
1979-07-11 09:08:21.070 ,4,0,,0,4224.,4.8,752.,4.8,,0,0.,4.8,1056.,4.8
1979-07-11 09:08:25.870 ,4,0,,0,4096.,4.8,736.,4.8,,0,0.,4.8,1120.,4.8
1979-07-11 09:08:30.670 ,4,0,,0,4224.,4.8,736.,4.8,,0,0.,4.8,1088.,4.8
1979-07-11 09:08:35.470 ,4,0,,0,3456.,4.8,608.,4.8,,0,0.,4.8,1056.,4.8
1979-07-11 09:08:40.270 ,4,0,,0,0.,4.8,0.,4.8,,0,0.,4.8,1120.,4.8
1979-07-11 09:08:45.070 ,4,0,,0,0.,4.8,0.,4.8,,0,0.,4.8,1120.,4.8
1979-07-11 09:08:49.870 ,5,0,,0,0.,4.8,0.,4.8,,0,0.,4.8,1088.,4.8
1979-07-11 09:08:54.670 ,5,0,,0,0.,4.8,0.,4.8,,0,0.,4.8,1184.,4.8
1979-07-11 09:08:59.470 ,5,0,,0,896.,4.8,160.,4.8,,0,0.,4.8,1408.,4.8
1979-07-11 09:09:04.270 ,5,0,,0,5248.,4.8,944.,4.8,,0,0.,4.8,1472.,4.8
1979-07-11 09:09:09.070 ,5,0,,0,5248.,4.8,944.,4.8,,0,0.,4.8,1440.,4.8
1979-07-11 09:09:13.870 ,5,0,,0,5248.,4.8,944.,4.8,,0,0.,4.8,1472.,4.8
1979-07-11 09:09:18.670 ,5,0,,0,5376.,4.8,992.,4.8,,0,0.,4.8,1472.,4.8
1979-07-11 09:09:23.470 ,5,0,,0,4480.,4.8,832.,4.8,,0,0.,4.8,1440.,4.8
1979-07-11 09:09:28.270 ,5,0,,0,0.,4.8,0.,4.8,,0,0.,4.8,1440.,4.8
1979-07-11 09:09:33.070 ,5,0,,0,0.,4.8,0.,4.8,,0,0.,4.8,1472.,4.8
1979-07-11 09:09:37.870 ,5,0,,0,0.,4.8,0.,4.8,,0,0.,4.8,1376.,4.8
1979-07-11 09:09:42.670 ,5,0,,0,0.,4.8,0.,4.8,,0,0.,4.8,1472.,4.8
1979-07-11 09:09:47.470 ,5,0,,0,896.,4.8,168.,4.8,,0,0.,4.8,1472.,4.8
1979-07-11 09:09:52.270 ,5,0,,0,5376.,4.8,992.,4.8,,0,0.,4.8,1504.,4.8
1979-07-11 09:09:57.070 ,5,0,,0,5632.,4.8,1024.,4.8,,0,0.,4.8,1504.,4.8
1979-07-11 09:10:01.870 ,5,0,,0,5376.,4.8,992.,4.8,,0,0.,4.8,1504.,4.8
1979-07-11 09:10:06.670 ,5,0,,0,5504.,4.8,992.,4.8,,0,0.,4.8,1472.,4.8
1979-07-11 09:10:11.470 ,5,0,,0,4608.,4.8,832.,4.8,,0,0.,4.8,1472.,4.8
1979-07-11 09:10:16.270 ,5,0,,0,0.,4.8,0.,4.8,,0,0.,4.8,1536.,4.8
1979-07-11 09:10:21.070 ,5,0,,0,0.,4.8,0.,4.8,,0,0.,4.8,1504.,4.8
1979-07-11 09:10:25.870 ,5,0,,0,0.,4.8,0.,4.8,,0,0.,4.8,1568.,4.8
1979-07-11 09:10:30.670 ,5,0,,0,0.,4.8,0.,4.8,,0,0.,4.8,1536.,4.8
1979-07-11 09:10:35.470 ,5,0,,0,912.,4.8,180.,4.8,,0,0.,4.8,1536.,4.8
1979-07-11 09:10:40.270 ,5,0,,0,5632.,4.8,1088.,4.8,,0,0.,4.8,1536.,4.8
1979-07-11 09:10:45.070 ,5,0,,0,5760.,4.8,1088.,4.8,,0,0.,4.8,1568.,4.8
1979-07-11 09:10:49.870 ,5,0,,0,5760.,4.8,1008.,4.8,,0,0.,4.8,1632.,4.8
1979-07-11 09:10:54.670 ,5,0,,0,5632.,4.8,1024.,4.8,,0,0.,4.8,1536.,4.8
1979-07-11 09:10:59.470 ,5,0,,0,4736.,4.8,896.,4.8,,0,0.,4.8,1472.,4.8
1979-07-11 09:11:04.270 ,5,0,,0,0.,4.8,0.,4.8,,0,0.,4.8,1536.,4.8
1979-07-11 09:11:09.070 ,5,0,,0,0.,4.8,0.,4.8,,0,0.,4.8,1408.,4.8
1979-07-11 09:11:13.870 ,6,0,,0,0.,4.8,0.,4.8,,0,0.,4.8,1536.,4.8
1979-07-11 09:11:18.670 ,6,0,,0,0.,4.8,0.,4.8,,0,0.,4.8,1440.,4.8
1979-07-11 09:11:23.470 ,6,0,,0,896.,4.8,180.,4.8,,0,0.,4.8,1344.,4.8
1979-07-11 09:11:28.270 ,6,0,,0,5248.,4.8,944.,4.8,,0,0.,4.8,1280.,4.8
1979-07-11 09:11:33.070 ,6,0,,0,5120.,4.8,992.,4.8,,0,0.,4.8,1472.,4.8
1979-07-11 09:11:37.870 ,6,0,,0,5120.,4.8,960.,4.8,,0,0.,4.8,1408.,4.8
1979-07-11 09:11:42.670 ,6,0,,0,5248.,4.8,1024.,4.8,,0,0.,4.8,1312.,4.8
1979-07-11 09:11:47.470 ,6,0,,0,4352.,4.8,816.,4.8,,0,0.,4.8,1440.,4.8
1979-07-11 09:11:52.270 ,6,0,,0,0.,4.8,0.,4.8,,0,0.,4.8,1344.,4.8
1979-07-11 09:11:57.070 ,6,0,,0,0.,4.8,0.,4.8,,0,0.,4.8,1376.,4.8
1979-07-11 09:12:01.870 ,6,0,,0,0.,4.8,0.,4.8,,0,0.,4.8,1312.,4.8
1979-07-11 09:12:06.670 ,6,0,,0,0.,4.8,0.,4.8,,0,0.,4.8,1344.,4.8
1979-07-11 09:12:11.470 ,6,0,,0,832.,4.8,148.,4.8,,0,0.,4.8,1376.,4.8
1979-07-11 09:12:16.270 ,6,0,,0,5120.,4.8,992.,4.8,,0,0.,4.8,1344.,4.8
1979-07-11 09:12:21.070 ,6,0,,0,5120.,4.8,976.,4.8,,0,0.,4.8,1344.,4.8
1979-07-11 09:12:25.870 ,6,0,,0,5248.,4.8,960.,4.8,,0,0.,4.8,1344.,4.8
1979-07-11 09:12:30.670 ,6,0,,0,5248.,4.8,960.,4.8,,0,0.,4.8,1376.,4.8
1979-07-11 09:12:35.470 ,6,0,,0,4480.,4.8,896.,4.8,,0,0.,4.8,1440.,4.8
1979-07-11 09:12:40.270 ,6,0,,0,0.,4.8,0.,4.8,,0,0.,4.8,1376.,4.8
1979-07-11 09:12:45.070 ,6,0,,0,0.,4.8,0.,4.8,,0,0.,4.8,1408.,4.8
1979-07-11 09:12:49.870 ,6,0,,0,0.,4.8,0.,4.8,,0,0.,4.8,1408.,4.8
1979-07-11 09:12:54.670 ,6,0,,0,0.,4.8,0.,4.8,,0,0.,4.8,1376.,4.8
1979-07-11 09:12:59.470 ,6,0,,0,896.,4.8,152.,4.8,,0,0.,4.8,1376.,4.8
1979-07-11 09:13:04.270 ,6,0,,0,5504.,4.8,1024.,4.8,,0,0.,4.8,1472.,4.8
1979-07-11 09:13:09.070 ,6,0,,0,5376.,4.8,1088.,4.8,,0,0.,4.8,1408.,4.8
1979-07-11 09:13:13.870 ,6,0,,0,5504.,4.8,1056.,4.8,,0,0.,4.8,1440.,4.8
1979-07-11 09:13:18.670 ,6,0,,0,5376.,4.8,1056.,4.8,,0,0.,4.8,1408.,4.8
1979-07-11 09:13:23.470 ,6,0,,0,4480.,4.8,928.,4.8,,0,0.,4.8,1472.,4.8
1979-07-11 09:13:28.270 ,6,0,,0,0.,4.8,0.,4.8,,0,0.,4.8,1408.,4.8
1979-07-11 09:13:33.070 ,6,0,,0,0.,4.8,0.,4.8,,0,0.,4.8,1440.,4.8
1979-07-11 09:13:37.870 ,7,0,,0,0.,4.8,0.,4.8,,0,0.,4.8,1408.,4.8
1979-07-11 09:13:42.670 ,7,0,,0,0.,4.8,0.,4.8,,0,0.,4.8,976.,4.8
1979-07-11 09:13:47.470 ,7,0,,0,1.,4.8,0.,4.8,,0,0.,4.8,0.,4.8
1979-07-11 09:13:52.270 ,7,0,,0,11.,4.8,0.,4.8,,0,0.,4.8,0.,4.8
1979-07-11 09:13:57.070 ,7,0,,0,8.,4.8,0.,4.8,,0,0.,4.8,0.,4.8
1979-07-11 09:14:01.870 ,7,0,,0,13.,4.8,0.,4.8,,0,0.,4.8,0.,4.8
1979-07-11 09:14:06.670 ,7,0,,0,10.,4.8,0.,4.8,,0,0.,4.8,0.,4.8
1979-07-11 09:14:11.470 ,7,0,,0,8.,4.8,0.,4.8,,0,0.,4.8,0.,4.8
1979-07-11 09:14:16.270 ,7,0,,0,0.,4.8,0.,4.8,,0,0.,4.8,0.,4.8
1979-07-11 09:14:21.070 ,7,0,,0,0.,4.8,0.,4.8,,0,0.,4.8,0.,4.8
1979-07-11 09:14:25.870 ,7,0,,0,0.,4.8,0.,4.8,,0,0.,4.8,0.,4.8
1979-07-11 09:14:30.670 ,7,0,,0,0.,4.8,0.,4.8,,0,0.,4.8,0.,4.8
1979-07-11 09:14:35.470 ,7,0,,0,1.,4.8,0.,4.8,,0,0.,4.8,0.,4.8
1979-07-11 09:14:40.270 ,7,0,,0,8.,4.8,0.,4.8,,0,0.,4.8,0.,4.8
1979-07-11 09:14:45.070 ,7,0,,0,9.,4.8,0.,4.8,,0,0.,4.8,0.,4.8
1979-07-11 09:14:49.870 ,7,0,,0,4.,4.8,0.,4.8,,0,0.,4.8,0.,4.8
1979-07-11 09:14:54.670 ,7,0,,0,7.,4.8,0.,4.8,,0,0.,4.8,0.,4.8
1979-07-11 09:14:59.470 ,7,0,,0,10.,4.8,0.,4.8,,0,0.,4.8,0.,4.8
1979-07-11 09:15:04.270 ,7,0,,0,0.,4.8,0.,4.8,,0,0.,4.8,0.,4.8
1979-07-11 09:15:09.070 ,7,0,,0,0.,4.8,0.,4.8,,0,0.,4.8,0.,4.8
1979-07-11 09:15:13.870 ,7,0,,0,0.,4.8,0.,4.8,,0,0.,4.8,0.,4.8
1979-07-11 09:15:18.670 ,7,0,,0,0.,4.8,0.,4.8,,0,0.,4.8,0.,4.8
1979-07-11 09:15:23.470 ,7,0,,0,1.,4.8,0.,4.8,,0,0.,4.8,0.,4.8
1979-07-11 09:15:28.270 ,7,0,,0,11.,4.8,0.,4.8,,0,0.,4.8,0.,4.8
1979-07-11 09:15:33.070 ,7,0,,0,9.,4.8,0.,4.8,,0,0.,4.8,0.,4.8
1979-07-11 09:15:37.870 ,7,0,,0,13.,4.8,0.,4.8,,0,0.,4.8,0.,4.8
1979-07-11 09:15:42.670 ,7,0,,0,5.,4.8,0.,4.8,,0,0.,4.8,0.,4.8
1979-07-11 09:15:47.470 ,7,0,,0,8.,4.8,0.,4.8,,0,0.,4.8,0.,4.8
1979-07-11 09:15:52.270 ,7,0,,0,0.,4.8,0.,4.8,,0,0.,4.8,0.,4.8
1979-07-11 09:15:57.070 ,7,0,,0,0.,4.8,0.,4.8,,0,0.,4.8,0.,4.8
1979-07-11 09:16:01.870 ,7,0,,0,0.,4.8,0.,4.8,,0,0.,4.8,0.,4.8
1979-07-11 09:16:06.670 ,7,0,,0,0.,4.8,0.,4.8,,0,0.,4.8,0.,4.8
1979-07-11 09:16:11.470 ,7,0,,0,2.,4.8,0.,4.8,,0,0.,4.8,0.,4.8
1979-07-11 09:16:16.270 ,7,0,,0,9.,4.8,0.,4.8,,0,0.,4.8,0.,4.8
1979-07-11 09:16:21.070 ,7,0,,0,2.,4.8,0.,4.8,,0,0.,4.8,0.,4.8
1979-07-11 09:16:25.870 ,7,0,,0,10.,4.8,0.,4.8,,0,0.,4.8,0.,4.8
1979-07-11 09:16:30.670 ,7,0,,0,9.,4.8,0.,4.8,,0,0.,4.8,0.,4.8
1979-07-11 09:16:35.470 ,7,0,,0,3.,4.8,0.,4.8,,0,0.,4.8,0.,4.8
1979-07-11 09:16:40.270 ,7,0,,0,0.,4.8,0.,4.8,,0,0.,4.8,0.,4.8
1979-07-11 09:16:45.070 ,7,0,,0,0.,4.8,0.,4.8,,0,0.,4.8,0.,4.8
1979-07-11 09:16:49.870 ,7,0,,0,0.,4.8,0.,4.8,,0,0.,4.8,0.,4.8
1979-07-11 09:16:54.670 ,7,0,,0,0.,4.8,0.,4.8,,0,0.,4.8,0.,4.8
1979-07-11 09:16:59.470 ,7,0,,0,0.,4.8,0.,4.8,,0,0.,4.8,0.,4.8
1979-07-11 09:17:04.270 ,7,0,,0,10.,4.8,0.,4.8,,0,0.,4.8,0.,4.8
1979-07-11 09:17:09.070 ,7,0,,0,9.,4.8,0.,4.8,,0,0.,4.8,0.,4.8
1979-07-11 09:17:13.870 ,7,0,,0,6.,4.8,0.,4.8,,0,0.,4.8,0.,4.8
1979-07-11 09:17:18.670 ,7,0,,0,6.,4.8,0.,4.8,,0,0.,4.8,0.,4.8
1979-07-11 09:17:23.470 ,7,0,,0,8.,4.8,0.,4.8,,0,0.,4.8,0.,4.8
1979-07-11 09:17:28.270 ,7,0,,0,0.,4.8,0.,4.8,,0,0.,4.8,0.,4.8
1979-07-11 09:17:33.070 ,7,0,,0,0.,4.8,0.,4.8,,0,0.,4.8,0.,4.8
1979-07-11 09:17:37.870 ,7,0,,0,0.,4.8,0.,4.8,,0,0.,4.8,0.,4.8
1979-07-11 09:17:42.670 ,7,0,,0,0.,4.8,0.,4.8,,0,0.,4.8,0.,4.8
1979-07-11 09:17:47.470 ,7,0,,0,1.,4.8,0.,4.8,,0,0.,4.8,0.,4.8
1979-07-11 09:17:52.270 ,7,0,,0,5.,4.8,0.,4.8,,0,0.,4.8,0.,4.8
1979-07-11 09:17:57.070 ,7,0,,0,9.,4.8,0.,4.8,,0,0.,4.8,0.,4.8
1979-07-11 09:18:01.870 ,7,0,,0,4.,4.8,0.,4.8,,0,0.,4.8,0.,4.8
1979-07-11 09:18:06.670 ,7,0,,0,13.,4.8,0.,4.8,,0,0.,4.8,0.,4.8
1979-07-11 09:18:11.470 ,7,0,,0,8.,4.8,0.,4.8,,0,0.,4.8,0.,4.8
1979-07-11 09:18:16.270 ,7,0,,0,0.,4.8,0.,4.8,,0,0.,4.8,0.,4.8
1979-07-11 09:18:21.070 ,7,0,,0,0.,4.8,0.,4.8,,0,0.,4.8,0.,4.8
1979-07-11 09:18:25.870 ,6,0,,0,0.,4.8,0.,4.8,,0,0.,4.8,0.,4.8
1979-07-11 09:18:30.670 ,6,0,,0,0.,4.8,0.,4.8,,0,0.,4.8,456.,4.8
1979-07-11 09:18:35.470 ,6,0,,0,976.,4.8,196.,4.8,,0,0.,4.8,1504.,4.8
1979-07-11 09:18:40.270 ,6,0,,0,6016.,4.8,1312.,4.8,,0,0.,4.8,1536.,4.8
1979-07-11 09:18:45.070 ,6,0,,0,5888.,4.8,1248.,4.8,,0,0.,4.8,1472.,4.8
1979-07-11 09:18:49.870 ,6,0,,0,6016.,4.8,1280.,4.8,,0,0.,4.8,1504.,4.8
1979-07-11 09:18:54.670 ,6,0,,0,5888.,4.8,1248.,4.8,,0,0.,4.8,1664.,4.8
1979-07-11 09:18:59.470 ,6,0,,0,4992.,4.8,1024.,4.8,,0,0.,4.8,1504.,4.8
1979-07-11 09:19:04.270 ,6,0,,0,0.,4.8,0.,4.8,,0,0.,4.8,1568.,4.8
1979-07-11 09:19:09.070 ,6,0,,0,0.,4.8,0.,4.8,,0,0.,4.8,1568.,4.8
1979-07-11 09:19:13.870 ,6,0,,0,0.,4.8,0.,4.8,,0,0.,4.8,1568.,4.8
1979-07-11 09:19:18.670 ,6,0,,0,0.,4.8,0.,4.8,,0,0.,4.8,1568.,4.8
1979-07-11 09:19:23.470 ,6,0,,0,1056.,4.8,252.,4.8,,0,0.,4.8,1600.,4.8
1979-07-11 09:19:28.270 ,6,0,,0,6272.,4.8,1408.,4.8,,0,0.,4.8,1664.,4.8
1979-07-11 09:19:33.070 ,6,0,,0,6272.,4.8,1376.,4.8,,0,0.,4.8,1536.,4.8
1979-07-11 09:19:37.870 ,6,0,,0,6272.,4.8,1376.,4.8,,0,0.,4.8,1600.,4.8
1979-07-11 09:19:42.670 ,6,0,,0,6272.,4.8,1408.,4.8,,0,0.,4.8,1600.,4.8
1979-07-11 09:19:47.470 ,6,0,,0,5376.,4.8,1216.,4.8,,0,0.,4.8,1760.,4.8
1979-07-11 09:19:52.270 ,6,0,,0,0.,4.8,0.,4.8,,0,0.,4.8,1664.,4.8
1979-07-11 09:19:57.070 ,6,0,,0,0.,4.8,0.,4.8,,0,0.,4.8,1632.,4.8
1979-07-11 09:20:01.870 ,6,0,,0,0.,4.8,0.,4.8,,0,0.,4.8,1632.,4.8
1979-07-11 09:20:06.670 ,6,0,,0,0.,4.8,0.,4.8,,0,0.,4.8,1696.,4.8
1979-07-11 09:20:11.470 ,6,0,,0,1152.,4.8,252.,4.8,,0,0.,4.8,1760.,4.8
1979-07-11 09:20:16.270 ,6,0,,0,6528.,4.8,1440.,4.8,,0,0.,4.8,1728.,4.8
1979-07-11 09:20:21.070 ,6,0,,0,6784.,4.8,1472.,4.8,,0,0.,4.8,1696.,4.8
1979-07-11 09:20:25.870 ,6,0,,0,6656.,4.8,1472.,4.8,,0,0.,4.8,1664.,4.8
1979-07-11 09:20:30.670 ,6,0,,0,6656.,4.8,1440.,4.8,,0,0.,4.8,1696.,4.8
1979-07-11 09:20:35.470 ,6,0,,0,5504.,4.8,1248.,4.8,,0,0.,4.8,1664.,4.8
1979-07-11 09:20:40.270 ,6,0,,0,0.,4.8,0.,4.8,,0,0.,4.8,1760.,4.8
1979-07-11 09:20:45.070 ,6,0,,0,0.,4.8,0.,4.8,,0,0.,4.8,1728.,4.8
1979-07-11 09:20:49.870 ,5,0,,0,0.,4.8,0.,4.8,,0,0.,4.8,1792.,4.8
1979-07-11 09:20:54.670 ,5,0,,0,0.,4.8,0.,4.8,,0,0.,4.8,1856.,4.8
1979-07-11 09:20:59.470 ,5,0,,0,1184.,4.8,256.,4.8,,0,0.,4.8,1920.,4.8
1979-07-11 09:21:04.270 ,5,0,,0,7168.,4.8,1568.,4.8,,0,0.,4.8,1920.,4.8
1979-07-11 09:21:09.070 ,5,0,,0,7296.,4.8,1568.,4.8,,0,0.,4.8,1952.,4.8
1979-07-11 09:21:13.870 ,5,0,,0,7296.,4.8,1632.,4.8,,0,0.,4.8,1888.,4.8
1979-07-11 09:21:18.670 ,5,0,,0,7296.,4.8,1664.,4.8,,0,0.,4.8,1920.,4.8
1979-07-11 09:21:23.470 ,5,0,,0,6016.,4.8,1280.,4.8,,0,0.,4.8,1984.,4.8
1979-07-11 09:21:28.270 ,5,0,,0,0.,4.8,0.,4.8,,0,0.,4.8,1920.,4.8
1979-07-11 09:21:33.070 ,5,0,,0,0.,4.8,0.,4.8,,0,0.,4.8,2016.,4.8
1979-07-11 09:21:37.870 ,5,0,,0,0.,4.8,0.,4.8,,0,0.,4.8,2048.,4.8
1979-07-11 09:21:42.670 ,5,0,,0,0.,4.8,0.,4.8,,0,0.,4.8,1920.,4.8
1979-07-11 09:21:47.470 ,5,0,,0,1216.,4.8,280.,4.8,,0,0.,4.8,2016.,4.8
1979-07-11 09:21:52.270 ,5,0,,0,7424.,4.8,1696.,4.8,,0,0.,4.8,1920.,4.8
1979-07-11 09:21:57.070 ,5,0,,0,7424.,4.8,1600.,4.8,,0,0.,4.8,1952.,4.8
1979-07-11 09:22:01.870 ,5,0,,0,7552.,4.8,1632.,4.8,,0,0.,4.8,1984.,4.8
1979-07-11 09:22:06.670 ,5,0,,0,7552.,4.8,1632.,4.8,,0,0.,4.8,2016.,4.8
1979-07-11 09:22:11.470 ,5,0,,0,6272.,4.8,1344.,4.8,,0,0.,4.8,2048.,4.8
1979-07-11 09:22:16.270 ,5,0,,0,0.,4.8,0.,4.8,,0,0.,4.8,2048.,4.8
1979-07-11 09:22:21.070 ,5,0,,0,0.,4.8,0.,4.8,,0,0.,4.8,1984.,4.8
1979-07-11 09:22:25.870 ,5,0,,0,0.,4.8,0.,4.8,,0,0.,4.8,1984.,4.8
1979-07-11 09:22:30.670 ,5,0,,0,0.,4.8,0.,4.8,,0,0.,4.8,1984.,4.8
1979-07-11 09:22:35.470 ,5,0,,0,1248.,4.8,272.,4.8,,0,0.,4.8,2048.,4.8
1979-07-11 09:22:40.270 ,5,0,,0,7552.,4.8,1632.,4.8,,0,0.,4.8,2016.,4.8
1979-07-11 09:22:45.070 ,5,0,,0,7680.,4.8,1632.,4.8,,0,0.,4.8,1888.,4.8
1979-07-11 09:22:49.870 ,5,0,,0,7680.,4.8,1664.,4.8,,0,0.,4.8,2016.,4.8
1979-07-11 09:22:54.670 ,5,0,,0,7552.,4.8,1568.,4.8,,0,0.,4.8,2016.,4.8
1979-07-11 09:22:59.470 ,5,0,,0,6400.,4.8,1376.,4.8,,0,0.,4.8,2016.,4.8
1979-07-11 09:23:04.270 ,5,0,,0,0.,4.8,0.,4.8,,0,0.,4.8,1984.,4.8
1979-07-11 09:23:09.070 ,5,0,,0,0.,4.8,0.,4.8,,0,0.,4.8,1984.,4.8
1979-07-11 09:23:13.870 ,4,0,,0,0.,4.8,0.,4.8,,0,0.,4.8,2048.,4.8
1979-07-11 09:23:18.670 ,4,0,,0,0.,4.8,0.,4.8,,0,0.,4.8,1760.,4.8
1979-07-11 09:23:23.470 ,4,0,,0,992.,4.8,216.,4.8,,0,0.,4.8,1440.,4.8
1979-07-11 09:23:28.270 ,4,0,,0,5760.,4.8,1184.,4.8,,0,0.,4.8,1440.,4.8
1979-07-11 09:23:33.070 ,4,0,,0,5888.,4.8,1248.,4.8,,0,0.,4.8,1440.,4.8
1979-07-11 09:23:37.870 ,4,0,,0,5504.,4.8,1216.,4.8,,0,0.,4.8,1440.,4.8
1979-07-11 09:23:42.670 ,4,0,,0,5632.,4.8,1152.,4.8,,0,0.,4.8,1408.,4.8
1979-07-11 09:23:47.470 ,4,0,,0,4736.,4.8,992.,4.8,,0,0.,4.8,1376.,4.8
1979-07-11 09:23:52.270 ,4,0,,0,0.,4.8,0.,4.8,,0,0.,4.8,1312.,4.8
1979-07-11 09:23:57.070 ,4,0,,0,0.,4.8,0.,4.8,,0,0.,4.8,1312.,4.8
1979-07-11 09:24:01.870 ,4,0,,0,0.,4.8,0.,4.8,,0,0.,4.8,1376.,4.8
1979-07-11 09:24:06.670 ,4,0,,0,0.,4.8,0.,4.8,,0,0.,4.8,1376.,4.8
1979-07-11 09:24:11.470 ,4,0,,0,912.,4.8,228.,4.8,,0,0.,4.8,1408.,4.8
1979-07-11 09:24:16.270 ,4,0,,0,5760.,4.8,1216.,4.8,,0,0.,4.8,1408.,4.8
1979-07-11 09:24:21.070 ,4,0,,0,5632.,4.8,1248.,4.8,,0,0.,4.8,1312.,4.8
1979-07-11 09:24:25.870 ,4,0,,0,5632.,4.8,1216.,4.8,,0,0.,4.8,1440.,4.8
1979-07-11 09:24:30.670 ,4,0,,0,5504.,4.8,1216.,4.8,,0,0.,4.8,1440.,4.8
1979-07-11 09:24:35.470 ,4,0,,0,4736.,4.8,1088.,4.8,,0,0.,4.8,1408.,4.8
1979-07-11 09:24:40.270 ,4,0,,0,0.,4.8,0.,4.8,,0,0.,4.8,1504.,4.8
1979-07-11 09:24:45.070 ,4,0,,0,0.,4.8,0.,4.8,,0,0.,4.8,1376.,4.8
1979-07-11 09:24:49.870 ,4,0,,0,0.,4.8,0.,4.8,,0,0.,4.8,1504.,4.8
1979-07-11 09:24:54.670 ,4,0,,0,0.,4.8,0.,4.8,,0,0.,4.8,1440.,4.8
1979-07-11 09:24:59.470 ,4,0,,0,1056.,4.8,224.,4.8,,0,0.,4.8,1536.,4.8
1979-07-11 09:25:04.270 ,4,0,,0,6016.,4.8,1248.,4.8,,0,0.,4.8,1504.,4.8
1979-07-11 09:25:09.070 ,4,0,,0,6016.,4.8,1248.,4.8,,0,0.,4.8,1472.,4.8
1979-07-11 09:25:13.870 ,4,0,,0,6016.,4.8,1280.,4.8,,0,0.,4.8,1568.,4.8
1979-07-11 09:25:18.670 ,4,0,,0,6144.,4.8,1248.,4.8,,0,0.,4.8,1536.,4.8
1979-07-11 09:25:23.470 ,4,0,,0,5248.,4.8,1056.,4.8,,0,0.,4.8,1536.,4.8
1979-07-11 09:25:28.270 ,4,0,,0,0.,4.8,0.,4.8,,0,0.,4.8,1600.,4.8
1979-07-11 09:25:33.070 ,4,0,,0,0.,4.8,0.,4.8,,0,0.,4.8,1568.,4.8
1979-07-11 09:25:37.870 ,3,0,,0,0.,4.8,0.,4.8,,0,0.,4.8,1536.,4.8
1979-07-11 09:25:42.670 ,3,0,,0,0.,4.8,0.,4.8,,0,0.,4.8,1280.,4.8
1979-07-11 09:25:47.470 ,3,0,,0,608.,4.8,114.,4.8,,0,0.,4.8,784.,4.8
1979-07-11 09:25:52.270 ,3,0,,0,3648.,4.8,768.,4.8,,0,0.,4.8,784.,4.8
1979-07-11 09:25:57.070 ,3,0,,0,3584.,4.8,704.,4.8,,0,0.,4.8,736.,4.8
1979-07-11 09:26:01.870 ,3,0,,0,3648.,4.8,672.,4.8,,0,0.,4.8,768.,4.8
1979-07-11 09:26:06.670 ,3,0,,0,3712.,4.8,688.,4.8,,0,0.,4.8,848.,4.8
1979-07-11 09:26:11.470 ,3,0,,0,3200.,4.8,656.,4.8,,0,0.,4.8,848.,4.8
1979-07-11 09:26:16.270 ,3,0,,0,0.,4.8,0.,4.8,,0,0.,4.8,864.,4.8
1979-07-11 09:26:21.070 ,3,0,,0,0.,4.8,0.,4.8,,0,0.,4.8,848.,4.8
1979-07-11 09:26:25.870 ,0,0,,0,0.,4.8,0.,4.8,,0,0.,4.8,848.,4.8
1979-07-11 09:26:30.670 ,0,0,,0,0.,4.8,0.,4.8,,0,0.,4.8,848.,4.8
1979-07-11 09:26:35.470 ,0,0,,0,640.,4.8,148.,4.8,,0,0.,4.8,864.,4.8
1979-07-11 09:26:40.270 ,0,0,,0,3904.,4.8,768.,4.8,,0,0.,4.8,864.,4.8
1979-07-11 09:26:45.070 ,0,0,,0,3904.,4.8,768.,4.8,,0,0.,4.8,800.,4.8
1979-07-11 09:26:49.870 ,0,0,,0,3840.,4.8,704.,4.8,,0,0.,4.8,832.,4.8
1979-07-11 09:26:54.670 ,0,0,,0,3840.,4.8,768.,4.8,,0,0.,4.8,832.,4.8
1979-07-11 09:26:59.470 ,0,0,,0,3264.,4.8,608.,4.8,,0,0.,4.8,912.,4.8
1979-07-11 09:27:04.270 ,0,0,,0,,0,,0,,0,,0,,0
1979-07-11 09:27:09.070 ,0,0,,0,,0,,0,,0,,0,,0
1979-07-11 09:27:13.870 ,0,0,,0,0.,4.8,0.,4.8,,0,0.,4.8,832.,4.8
1979-07-11 09:27:18.670 ,0,0,,0,0.,4.8,0.,4.8,,0,0.,4.8,864.,4.8
1979-07-11 09:27:23.470 ,0,0,,0,656.,4.8,132.,4.8,,0,0.,4.8,912.,4.8
1979-07-11 09:27:28.270 ,0,0,,0,3968.,4.8,784.,4.8,,0,0.,4.8,896.,4.8
1979-07-11 09:27:33.070 ,0,0,,0,3840.,4.8,768.,4.8,,0,0.,4.8,800.,4.8
1979-07-11 09:27:37.870 ,0,0,,0,3968.,4.8,720.,4.8,,0,0.,4.8,912.,4.8
1979-07-11 09:27:42.670 ,0,0,,0,3904.,4.8,768.,4.8,,0,0.,4.8,896.,4.8
1979-07-11 09:27:47.470 ,0,0,,0,3200.,4.8,608.,4.8,,0,0.,4.8,800.,4.8
1979-07-11 09:27:52.270 ,0,0,,0,0.,4.8,0.,4.8,,0,0.,4.8,848.,4.8
1979-07-11 09:27:57.070 ,0,0,,0,0.,4.8,0.,4.8,,0,0.,4.8,864.,4.8
1979-07-11 09:28:01.870 ,2,0,,0,0.,4.8,0.,4.8,,0,0.,4.8,816.,4.8
1979-07-11 09:28:06.670 ,2,0,,0,0.,4.8,0.,4.8,,0,0.,4.8,784.,4.8
1979-07-11 09:28:11.470 ,2,0,,0,528.,4.8,98.,4.8,,0,0.,4.8,624.,4.8